4XCDE LLHA-LLHA

Flight info

Callsign 4XCDE
Flight time 0h 8m
Altitude 1200
Route /EZORIM
Aircraft C172/L-S/L

Departure

Time 2026-04-24 21:03
Airport Uri Michaeli Haifa International Airport (LLHA)

Arrival

Time 2026-04-24 21:11
Airport Uri Michaeli Haifa International Airport (LLHA)
Time Latitude Longitude Altitude Speed Heading
2026-04-24 20:54 32.81473 35.04338 25 ft 0 kts 251°
2026-04-24 21:00 32.81484 35.04300 26 ft 5 kts 308°
2026-04-24 21:01 32.81495 35.04279 26 ft 2 kts 303°
2026-04-24 21:01 32.81483 35.04200 28 ft 16 kts 247°
2026-04-24 21:01 32.81363 35.04214 26 ft 29 kts 160°
2026-04-24 21:01 32.81078 35.04337 23 ft 58 kts 159°
2026-04-24 21:02 32.80722 35.04489 23 ft 45 kts 163°
2026-04-24 21:02 32.80590 35.04573 21 ft 5 kts 54°
2026-04-24 21:02 32.80619 35.04560 22 ft 0 kts 324°
2026-04-24 21:02 32.80672 35.04531 23 ft 29 kts 339°
2026-04-24 21:03 32.81018 35.04373 46 ft 70 kts 340°
2026-04-24 21:03 32.81497 35.04158 200 ft 77 kts 342°
2026-04-24 21:03 32.81993 35.04084 516 ft 75 kts 28°
2026-04-24 21:03 32.82188 35.04745 671 ft 102 kts 95°
2026-04-24 21:04 32.81800 35.05511 802 ft 110 kts 123°
2026-04-24 21:04 32.81287 35.06189 882 ft 115 kts 128°
2026-04-24 21:04 32.80687 35.06847 932 ft 117 kts 136°
2026-04-24 21:04 32.80043 35.07429 1015 ft 115 kts 143°
2026-04-24 21:05 32.79335 35.07680 1079 ft 108 kts 188°
2026-04-24 21:05 32.78695 35.07279 1120 ft 105 kts 220°
2026-04-24 21:05 32.78117 35.06713 1003 ft 110 kts 228°
2026-04-24 21:05 32.77951 35.06010 889 ft 84 kts 300°
2026-04-24 21:06 32.78303 35.05496 653 ft 78 kts 337°
2026-04-24 21:06 32.78784 35.05252 448 ft 74 kts 343°
2026-04-24 21:06 32.79265 35.05069 348 ft 71 kts 348°
2026-04-24 21:06 32.79737 35.04919 252 ft 67 kts 347°
2026-04-24 21:07 32.80164 35.04736 162 ft 66 kts 344°
2026-04-24 21:07 32.80587 35.04560 46 ft 59 kts 342°
2026-04-24 21:07 32.80920 35.04423 24 ft 57 kts 338°
2026-04-24 21:07 32.81371 35.04202 145 ft 75 kts 339°
2026-04-24 21:08 32.81804 35.03958 498 ft 65 kts 337°
2026-04-24 21:08 32.82196 35.04191 687 ft 87 kts 43°
2026-04-24 21:08 32.82523 35.04854 940 ft 98 kts 85°
2026-04-24 21:08 32.82066 35.05534 1020 ft 120 kts 138°
2026-04-24 21:09 32.81353 35.06119 1158 ft 125 kts 143°
2026-04-24 21:09 32.80611 35.06712 1283 ft 125 kts 142°
2026-04-24 21:09 32.79896 35.07255 1407 ft 128 kts 143°
2026-04-24 21:09 32.78999 35.07337 1347 ft 139 kts 204°
2026-04-24 21:10 32.78270 35.06571 1195 ft 140 kts 229°
2026-04-24 21:10 32.77954 35.05733 960 ft 95 kts 301°
2026-04-24 21:10 32.78432 35.05397 697 ft 77 kts 342°
2026-04-24 21:10 32.78923 35.05185 465 ft 71 kts 346°
2026-04-24 21:11 32.79359 35.05034 464 ft 62 kts 345°
2026-04-24 21:11 32.79818 35.04875 354 ft 74 kts 347°
2026-04-24 21:11 32.80313 35.04673 133 ft 71 kts 342°
2026-04-24 21:11 32.80717 35.04505 24 ft 48 kts 347°
2026-04-24 21:12 32.81111 35.04329 24 ft 79 kts 340°
2026-04-24 21:12 32.81651 35.04086 260 ft 78 kts 339°
2026-04-24 21:12 32.82143 35.04115 575 ft 79 kts 19°
2026-04-24 21:12 32.82630 35.04529 776 ft 97 kts 54°
2026-04-24 21:13 32.82528 35.05376 920 ft 117 kts 124°
2026-04-24 21:13 32.81902 35.05990 1078 ft 122 kts 145°
2026-04-24 21:13 32.81154 35.06466 1115 ft 120 kts 151°
2026-04-24 21:13 32.80380 35.06937 1003 ft 125 kts 150°
2026-04-24 21:14 32.79604 35.07339 965 ft 119 kts 160°
2026-04-24 21:14 32.78845 35.07118 960 ft 113 kts 220°
2026-04-24 21:14 32.78241 35.06490 910 ft 115 kts 234°
2026-04-24 21:14 32.78172 35.05691 819 ft 96 kts 314°
2026-04-24 21:15 32.78677 35.05292 603 ft 79 kts 339°
2026-04-24 21:15 32.79158 35.05085 462 ft 73 kts 345°
2026-04-24 21:15 32.79649 35.04924 352 ft 75 kts 348°
2026-04-24 21:15 32.80147 35.04741 183 ft 73 kts 345°
2026-04-24 21:16 32.80608 35.04548 42 ft 65 kts 341°
2026-04-24 21:16 32.80991 35.04384 27 ft 58 kts 338°
2026-04-24 21:16 32.81455 35.04159 154 ft 75 kts 336°
2026-04-24 21:16 32.81909 35.03903 485 ft 71 kts 338°
2026-04-24 21:17 32.82342 35.04187 656 ft 98 kts 55°
2026-04-24 21:17 32.82500 35.04996 831 ft 109 kts 91°
2026-04-24 21:17 32.82114 35.05734 1020 ft 113 kts 128°
2026-04-24 21:17 32.81467 35.06342 1101 ft 124 kts 142°
2026-04-24 21:18 32.80709 35.06880 1034 ft 123 kts 151°
2026-04-24 21:18 32.79947 35.07264 860 ft 113 kts 160°
2026-04-24 21:18 32.79218 35.07381 729 ft 102 kts 200°
2026-04-24 21:18 32.78707 35.06866 599 ft 96 kts 230°
2026-04-24 21:19 32.78344 35.06268 568 ft 85 kts 248°
2026-04-24 21:19 32.78421 35.05645 486 ft 77 kts 308°
2026-04-24 21:19 32.78816 35.05273 459 ft 74 kts 340°
2026-04-24 21:19 32.79297 35.05078 361 ft 67 kts 347°
2026-04-24 21:20 32.80147 35.04746 132 ft 64 kts 341°
2026-04-24 21:20 32.80554 35.04574 43 ft 57 kts 342°
2026-04-24 21:20 32.80865 35.04443 24 ft 34 kts 342°
2026-04-24 21:21 32.81038 35.04371 26 ft 14 kts 343°
2026-04-24 21:21 32.81122 35.04327 26 ft 12 kts 338°
2026-04-24 21:21 32.81180 35.04294 25 ft 8 kts 276°
2026-04-24 21:21 32.81166 35.04229 23 ft 9 kts 278°
2026-04-24 21:22 32.81208 35.04185 22 ft 7 kts 323°
2026-04-24 21:22 32.81231 35.04166 22 ft 1 kts 41°